TimeCST,TemperatureF,Dew PointF,Humidity,Sea Level PressureIn,VisibilityMPH,Wind Direction,Wind SpeedMPH,Gust SpeedMPH,PrecipitationIn,Events,Conditions,WindDirDegrees,DateUTC
12:51 AM,57.9,33.1,39,30.09,10.0,ESE,8.1,-,N/A,,Overcast,120,2013-02-20 06:51:00
1:51 AM,57.0,33.1,40,30.09,10.0,ESE,8.1,-,N/A,,Overcast,120,2013-02-20 07:51:00
2:51 AM,55.9,34.0,44,30.06,10.0,SE,8.1,-,N/A,,Overcast,140,2013-02-20 08:51:00
3:51 AM,55.9,32.0,40,30.06,10.0,ESE,8.1,-,N/A,,Overcast,120,2013-02-20 09:51:00
4:51 AM,55.0,33.1,43,30.08,10.0,SE,8.1,-,0.00,,Overcast,140,2013-02-20 10:51:00
5:51 AM,54.0,35.1,49,30.04,10.0,ESE,9.2,16.1,N/A,,Overcast,110,2013-02-20 11:51:00
6:51 AM,54.0,37.0,53,29.99,10.0,East,10.4,19.6,N/A,,Overcast,100,2013-02-20 12:51:00
7:51 AM,53.1,37.0,55,30.02,10.0,ESE,5.8,-,N/A,,Overcast,110,2013-02-20 13:51:00
8:05 AM,53.1,37.9,57,30.01,10.0,East,10.4,16.1,N/A,,Overcast,100,2013-02-20 14:05:00
8:51 AM,54.0,39.0,57,30.01,10.0,SE,10.4,17.3,N/A,,Overcast,130,2013-02-20 14:51:00
9:51 AM,54.0,41.0,62,30.04,10.0,East,6.9,-,N/A,,Overcast,80,2013-02-20 15:51:00
10:51 AM,54.0,44.1,69,30.00,10.0,ESE,10.4,17.3,0.00,Rain,Light Rain,110,2013-02-20 16:51:00
11:51 AM,55.0,46.9,74,29.97,10.0,ESE,6.9,17.3,0.00,,Overcast,120,2013-02-20 17:51:00
12:51 PM,57.0,48.0,72,29.92,10.0,SE,10.4,16.1,N/A,,Overcast,130,2013-02-20 18:51:00
1:51 PM,57.9,48.9,72,29.88,10.0,ESE,3.5,-,N/A,,Overcast,110,2013-02-20 19:51:00
2:51 PM,57.9,51.1,78,29.85,9.0,Variable,5.8,-,0.00,Rain,Light Rain,0,2013-02-20 20:51:00
3:51 PM,57.9,55.0,90,29.84,5.0,Variable,4.6,-,0.01,Rain,Light Rain,0,2013-02-20 21:51:00
4:04 PM,57.9,55.0,90,29.84,4.0,East,5.8,-,0.00,Rain,Light Rain,80,2013-02-20 22:04:00
4:31 PM,57.9,55.9,93,29.82,2.5,Variable,4.6,-,0.01,Rain,Light Rain,0,2013-02-20 22:31:00
4:51 PM,57.9,55.9,93,29.81,2.0,Variable,6.9,-,0.01,Rain,Light Rain,0,2013-02-20 22:51:00
4:59 PM,57.9,55.9,93,29.81,2.0,East,9.2,-,0.00,,Overcast,100,2013-02-20 22:59:00
5:51 PM,59.0,57.0,93,29.78,2.5,ESE,6.9,17.3,0.00,,Overcast,110,2013-02-20 23:51:00
6:02 PM,59.0,57.0,93,29.79,4.0,ESE,11.5,19.6,N/A,,Overcast,120,2013-02-21 00:02:00
6:51 PM,59.0,57.0,93,29.79,8.0,East,6.9,-,N/A,,Overcast,100,2013-02-21 00:51:00
7:51 PM,60.1,57.9,93,29.76,7.0,ESE,10.4,20.7,N/A,,Overcast,110,2013-02-21 01:51:00
8:01 PM,60.1,57.9,93,29.77,6.0,ESE,6.9,-,N/A,,Overcast,120,2013-02-21 02:01:00
8:51 PM,60.1,59.0,96,29.75,5.0,ESE,10.4,18.4,N/A,,Overcast,120,2013-02-21 02:51:00
9:48 PM,60.8,59.0,94,29.72,2.5,ESE,10.4,19.6,N/A,,Overcast,120,2013-02-21 03:48:00
9:51 PM,61.0,59.0,93,29.71,2.5,ESE,9.2,-,N/A,,Overcast,110,2013-02-21 03:51:00
9:58 PM,61.0,59.0,93,29.72,3.0,ESE,10.4,-,N/A,,Overcast,120,2013-02-21 03:58:00
10:51 PM,62.1,61.0,96,29.70,3.0,SE,11.5,20.7,0.01,Rain,Light Rain,130,2013-02-21 04:51:00
11:10 PM,62.1,61.0,96,29.69,2.0,SE,11.5,23.0,0.00,Rain,Light Rain,140,2013-02-21 05:10:00
11:51 PM,63.0,61.0,93,29.67,1.8,SE,9.2,18.4,0.01,Rain,Light Rain,130,2013-02-21 05:51:00